Time,TemperatureF,DewpointF,PressureIn,WindDirection,WindDirectionDegrees,WindSpeedMPH,WindSpeedGustMPH,Humidity,HourlyPrecipIn,Conditions,Clouds,dailyrainin,SolarRadiationWatts/m^2,SoftwareType,DateUTC
2013-07-10 00:01:00,76.1,72.6,29.99,ESE,121,0.0,0.1,89,0.00,RA,,0.00,0.0,WeatherDisplay:10.37,2013-07-10 04:01:00,
2013-07-10 00:02:00,76.1,72.6,29.99,ESE,121,1.2,1.2,89,0.00,RA,,0.00,0.0,WeatherDisplay:10.37,2013-07-10 04:02:00,
2013-07-10 00:07:00,76.0,72.9,29.99,ESE,121,1.2,1.2,90,0.00,RA,,0.00,0.0,WeatherDisplay:10.37,2013-07-10 04:07:00,
2013-07-10 00:12:00,76.0,72.9,29.98,SE,134,2.3,2.3,90,0.00,RA,,0.00,0.0,WeatherDisplay:10.37,2013-07-10 04:12:00,
2013-07-10 00:17:00,75.9,72.8,29.98,ESE,115,3.5,3.5,90,0.00,RA,,0.00,0.0,WeatherDisplay:10.37,2013-07-10 04:17:00,
2013-07-10 00:22:00,75.9,72.8,29.98,SE,128,2.3,2.3,90,0.00,RA,,0.00,0.0,WeatherDisplay:10.37,2013-07-10 04:22:00,
2013-07-10 00:27:00,75.9,72.8,29.98,ESE,119,2.0,2.0,90,0.00,RA,,0.00,0.0,WeatherDisplay:10.37,2013-07-10 04:27:00,
2013-07-10 00:32:00,75.9,72.8,29.98,ESE,118,3.5,3.5,90,0.00,RA,,0.00,0.0,WeatherDisplay:10.37,2013-07-10 04:32:00,
2013-07-10 00:37:00,75.8,73.0,29.98,SSE,150,2.3,2.3,91,0.00,RA,,0.00,0.0,WeatherDisplay:10.37,2013-07-10 04:37:00,
2013-07-10 00:42:00,75.8,73.0,29.98,SE,142,2.3,2.3,91,0.00,RA,,0.00,0.0,WeatherDisplay:10.37,2013-07-10 04:42:00,
2013-07-10 00:47:00,75.8,73.0,29.97,SE,128,2.3,2.3,91,0.00,RA,,0.00,0.0,WeatherDisplay:10.37,2013-07-10 04:47:00,
2013-07-10 00:52:00,75.7,72.9,29.97,SE,131,0.0,0.0,91,0.00,RA,,0.00,0.0,WeatherDisplay:10.37,2013-07-10 04:52:00,
2013-07-10 00:57:00,75.7,72.9,29.97,SE,131,1.2,1.2,91,0.00,RA,,0.00,0.0,WeatherDisplay:10.37,2013-07-10 04:57:00,
2013-07-10 01:02:00,75.6,72.8,29.97,SE,131,1.0,1.0,91,0.00,CLR,,0.00,0.0,WeatherDisplay:10.37,2013-07-10 05:02:00,
2013-07-10 01:07:00,75.5,72.7,29.96,SE,131,2.3,2.3,91,0.00,CLR,,0.00,0.0,WeatherDisplay:10.37,2013-07-10 05:07:00,
2013-07-10 01:12:00,75.4,72.9,29.96,ESE,113,2.3,2.3,92,0.00,CLR,,0.00,0.0,WeatherDisplay:10.37,2013-07-10 05:12:00,
2013-07-10 01:17:00,75.4,72.9,29.96,SE,125,2.3,2.3,92,0.00,CLR,,0.00,0.0,WeatherDisplay:10.37,2013-07-10 05:17:00,
2013-07-10 01:22:00,75.4,72.9,29.95,SE,146,2.3,2.3,92,0.00,CLR,,0.00,0.0,WeatherDisplay:10.37,2013-07-10 05:22:00,
2013-07-10 01:27:00,75.4,72.9,29.95,South,182,2.3,2.3,92,0.00,CLR,,0.00,0.0,WeatherDisplay:10.37,2013-07-10 05:27:00,
2013-07-10 01:32:00,75.4,72.9,29.95,SSE,167,2.3,2.3,92,0.00,CLR,,0.00,0.0,WeatherDisplay:10.37,2013-07-10 05:32:00,
2013-07-10 01:37:00,75.3,72.8,29.95,ESE,123,2.3,2.3,92,0.00,CLR,,0.00,0.0,WeatherDisplay:10.37,2013-07-10 05:37:00,
2013-07-10 01:42:00,75.3,72.8,29.95,SE,126,3.5,3.5,92,0.00,CLR,,0.00,0.0,WeatherDisplay:10.37,2013-07-10 05:42:00,
2013-07-10 01:47:00,75.3,73.1,29.95,SE,145,1.2,1.2,93,0.00,CLR,,0.00,0.0,WeatherDisplay:10.37,2013-07-10 05:47:00,
2013-07-10 01:52:00,75.2,73.0,29.95,SSE,153,3.5,3.5,93,0.00,CLR,,0.00,0.0,WeatherDisplay:10.37,2013-07-10 05:52:00,
2013-07-10 01:57:00,75.1,72.9,29.95,ESE,111,2.3,2.3,93,0.00,CLR,,0.00,0.0,WeatherDisplay:10.37,2013-07-10 05:57:00,
2013-07-10 02:02:00,75.1,72.9,29.95,ESE,119,3.5,3.5,93,0.00,CLR,,0.00,0.0,WeatherDisplay:10.37,2013-07-10 06:02:00,
2013-07-10 02:07:00,75.1,72.9,29.95,ESE,119,2.3,2.3,93,0.00,CLR,,0.00,0.0,WeatherDisplay:10.37,2013-07-10 06:07:00,
2013-07-10 02:12:00,75.0,73.2,29.95,ESE,119,2.3,2.3,94,0.00,CLR,,0.00,0.0,WeatherDisplay:10.37,2013-07-10 06:12:00,
2013-07-10 02:17:00,75.0,73.2,29.95,ESE,119,2.0,2.0,94,0.00,CLR,,0.00,0.0,WeatherDisplay:10.37,2013-07-10 06:17:00,
2013-07-10 02:22:00,74.9,73.1,29.95,SSE,155,2.3,2.3,94,0.00,CLR,,0.00,0.0,WeatherDisplay:10.37,2013-07-10 06:22:00,
2013-07-10 02:27:00,74.9,73.1,29.95,SSE,152,2.3,2.3,94,0.00,CLR,,0.00,0.0,WeatherDisplay:10.37,2013-07-10 06:27:00,
2013-07-10 02:32:00,74.9,73.4,29.95,SE,124,3.5,3.5,95,0.00,CLR,,0.00,0.0,WeatherDisplay:10.37,2013-07-10 06:32:00,
2013-07-10 02:37:00,75.0,73.5,29.94,ESE,123,2.0,2.0,95,0.00,CLR,,0.00,0.0,WeatherDisplay:10.37,2013-07-10 06:37:00,
2013-07-10 02:42:00,75.0,73.5,29.95,SE,138,2.3,2.3,95,0.00,CLR,,0.00,0.0,WeatherDisplay:10.37,2013-07-10 06:42:00,
2013-07-10 02:47:00,75.0,73.5,29.94,South,180,2.3,2.3,95,0.00,CLR,,0.00,0.0,WeatherDisplay:10.37,2013-07-10 06:47:00,
2013-07-10 02:52:00,75.0,73.5,29.94,South,169,2.3,2.3,95,0.00,CLR,,0.00,0.0,WeatherDisplay:10.37,2013-07-10 06:52:00,
2013-07-10 02:57:00,75.0,73.5,29.94,South,170,2.3,2.3,95,0.00,CLR,,0.00,0.0,WeatherDisplay:10.37,2013-07-10 06:57:00,
2013-07-10 03:02:00,75.1,73.6,29.94,South,177,2.3,2.3,95,0.00,CLR,,0.00,0.0,WeatherDisplay:10.37,2013-07-10 07:02:00,
2013-07-10 03:07:00,75.0,73.5,29.94,ESE,123,1.2,1.2,95,0.00,CLR,,0.00,0.0,WeatherDisplay:10.37,2013-07-10 07:07:00,
2013-07-10 03:12:00,75.0,73.8,29.94,ESE,110,3.5,3.5,96,0.00,CLR,,0.00,0.0,WeatherDisplay:10.37,2013-07-10 07:12:00,
2013-07-10 03:17:00,74.9,73.7,29.94,ESE,113,1.2,1.2,96,0.00,CLR,,0.00,0.0,WeatherDisplay:10.37,2013-07-10 07:17:00,
2013-07-10 03:22:00,74.9,73.4,29.93,ESE,113,2.3,2.3,95,0.00,CLR,,0.00,0.0,WeatherDisplay:10.37,2013-07-10 07:22:00,
2013-07-10 03:27:00,74.8,73.6,29.93,ESE,113,0.0,0.0,96,0.00,CLR,,0.00,0.0,WeatherDisplay:10.37,2013-07-10 07:27:00,
2013-07-10 03:32:00,74.8,73.6,29.93,South,170,1.2,1.2,96,0.00,CLR,,0.00,0.0,WeatherDisplay:10.37,2013-07-10 07:32:00,
2013-07-10 03:37:00,74.7,73.5,29.94,SSE,161,1.2,1.2,96,0.00,CLR,,0.00,0.0,WeatherDisplay:10.37,2013-07-10 07:37:00,
2013-07-10 03:42:00,74.7,73.5,29.93,SE,146,1.2,0.0,96,0.00,CLR,,0.00,0.0,WeatherDisplay:10.37,2013-07-10 07:42:00,
2013-07-10 03:47:00,74.6,73.4,29.93,SE,146,1.0,1.0,96,0.00,CLR,,0.00,0.0,WeatherDisplay:10.37,2013-07-10 07:47:00,
2013-07-10 03:52:00,74.7,73.5,29.93,SE,136,1.2,1.2,96,0.00,CLR,,0.00,0.0,WeatherDisplay:10.37,2013-07-10 07:52:00,
2013-07-10 03:57:00,74.7,73.5,29.94,SE,142,1.2,1.2,96,0.00,CLR,,0.00,0.0,WeatherDisplay:10.37,2013-07-10 07:57:00,
2013-07-10 04:02:00,74.8,73.6,29.93,SSE,161,2.3,2.3,96,0.00,SCT,,0.00,0.0,WeatherDisplay:10.37,2013-07-10 08:02:00,
2013-07-10 04:07:00,74.8,73.6,29.93,SSE,161,2.3,2.3,96,0.00,SCT,,0.00,0.0,WeatherDisplay:10.37,2013-07-10 08:07:00,
2013-07-10 04:12:00,74.9,73.7,29.93,SE,130,2.3,2.3,96,0.00,SCT,,0.00,0.0,WeatherDisplay:10.37,2013-07-10 08:12:00,
2013-07-10 04:17:00,74.9,73.7,29.93,SE,137,2.3,2.3,96,0.00,SCT,,0.00,0.0,WeatherDisplay:10.37,2013-07-10 08:17:00,
2013-07-10 04:22:00,74.8,73.6,29.93,SE,136,1.2,1.2,96,0.00,SCT,,0.00,0.0,WeatherDisplay:10.37,2013-07-10 08:22:00,
2013-07-10 04:27:00,74.8,73.6,29.93,SE,136,1.2,1.2,96,0.00,SCT,,0.00,0.0,WeatherDisplay:10.37,2013-07-10 08:27:00,
2013-07-10 04:32:00,74.7,73.5,29.93,SE,134,2.0,2.0,96,0.00,SCT,,0.00,0.0,WeatherDisplay:10.37,2013-07-10 08:32:00,
2013-07-10 04:37:00,74.6,73.4,29.93,SE,144,2.3,2.3,96,0.00,SCT,,0.00,0.0,WeatherDisplay:10.37,2013-07-10 08:37:00,
2013-07-10 04:42:00,74.6,73.4,29.93,SSE,159,2.3,2.3,96,0.00,SCT,,0.00,0.0,WeatherDisplay:10.37,2013-07-10 08:42:00,
2013-07-10 04:47:00,74.5,73.3,29.93,SSE,159,1.2,0.0,96,0.00,SCT,,0.00,0.0,WeatherDisplay:10.37,2013-07-10 08:47:00,
2013-07-10 04:52:00,74.4,73.2,29.93,SSE,159,1.2,1.2,96,0.00,SCT,,0.00,0.0,WeatherDisplay:10.37,2013-07-10 08:52:00,
2013-07-10 04:57:00,74.5,74.5,29.93,SE,126,1.2,1.2,100,0.00,SCT,,0.00,0.0,WeatherDisplay:10.37,2013-07-10 08:57:00,
2013-07-10 05:02:00,74.4,73.2,29.93,SE,127,1.2,1.2,96,0.00,CLR,,0.00,0.0,WeatherDisplay:10.37,2013-07-10 09:02:00,
2013-07-10 05:07:00,74.4,74.4,29.93,SE,127,1.2,1.2,100,0.00,CLR,,0.00,0.0,WeatherDisplay:10.37,2013-07-10 09:07:00,
2013-07-10 05:12:00,74.3,74.3,29.93,SE,127,2.3,2.3,100,0.00,CLR,,0.00,0.0,WeatherDisplay:10.37,2013-07-10 09:12:00,
2013-07-10 05:17:00,74.3,74.3,29.93,SE,127,1.2,0.0,100,0.00,CLR,,0.00,0.0,WeatherDisplay:10.37,2013-07-10 09:17:00,
2013-07-10 05:22:00,74.2,74.2,29.93,SE,127,1.2,1.2,100,0.00,CLR,,0.00,0.0,WeatherDisplay:10.37,2013-07-10 09:22:00,
2013-07-10 05:27:00,74.2,73.0,29.93,SE,127,1.2,1.2,96,0.00,CLR,,0.00,0.0,WeatherDisplay:10.37,2013-07-10 09:27:00,
2013-07-10 05:32:00,74.1,72.9,29.93,SE,127,1.2,0.0,96,0.00,CLR,,0.00,0.0,WeatherDisplay:10.37,2013-07-10 09:32:00,
2013-07-10 05:37:00,74.0,72.8,29.93,SE,127,1.2,0.0,96,0.00,CLR,,0.00,0.0,WeatherDisplay:10.37,2013-07-10 09:37:00,
2013-07-10 05:42:00,74.0,72.8,29.93,SE,127,1.0,1.0,96,0.00,CLR,,0.00,0.0,WeatherDisplay:10.37,2013-07-10 09:42:00,
2013-07-10 05:47:00,74.0,72.8,29.93,SE,127,2.3,0.0,96,0.00,CLR,,0.00,0.0,WeatherDisplay:10.37,2013-07-10 09:47:00,
2013-07-10 05:52:00,73.9,72.7,29.93,SE,127,1.2,0.0,96,0.00,CLR,,0.00,5.0,WeatherDisplay:10.37,2013-07-10 09:52:00,
2013-07-10 05:57:00,73.8,72.6,29.93,South,170,3.5,3.5,96,0.00,CLR,,0.00,9.0,WeatherDisplay:10.37,2013-07-10 09:57:00,
2013-07-10 06:02:00,73.7,72.5,29.94,South,170,1.2,1.2,96,0.00,CLR,,0.00,16.0,WeatherDisplay:10.37,2013-07-10 10:02:00,
2013-07-10 06:07:00,73.7,73.7,29.94,South,170,0.0,0.1,100,0.00,CLR,,0.00,23.0,WeatherDisplay:10.37,2013-07-10 10:07:00,
2013-07-10 06:12:00,73.7,73.7,29.94,South,170,1.2,1.2,100,0.00,CLR,,0.00,30.0,WeatherDisplay:10.37,2013-07-10 10:12:00,
2013-07-10 06:17:00,73.7,73.7,29.93,South,170,1.2,1.2,100,0.00,CLR,,0.00,39.0,WeatherDisplay:10.37,2013-07-10 10:17:00,
2013-07-10 06:22:00,73.9,73.9,29.94,SSE,148,1.2,1.2,100,0.00,CLR,,0.00,47.0,WeatherDisplay:10.37,2013-07-10 10:22:00,
2013-07-10 06:27:00,74.2,74.2,29.93,SSE,148,1.2,1.2,100,0.00,CLR,,0.00,58.0,WeatherDisplay:10.37,2013-07-10 10:27:00,
2013-07-10 06:32:00,74.5,74.5,29.93,SSE,148,1.2,1.2,100,0.00,CLR,,0.00,67.0,WeatherDisplay:10.37,2013-07-10 10:32:00,
2013-07-10 06:37:00,74.7,73.5,29.93,SSE,148,0.0,0.0,96,0.00,CLR,,0.00,76.0,WeatherDisplay:10.37,2013-07-10 10:37:00,
2013-07-10 06:42:00,74.9,73.7,29.93,SSE,148,0.0,0.0,96,0.00,CLR,,0.00,86.0,WeatherDisplay:10.37,2013-07-10 10:42:00,
2013-07-10 06:47:00,75.1,73.9,29.93,SSE,148,0.0,0.0,96,0.00,CLR,,0.00,97.0,WeatherDisplay:10.37,2013-07-10 10:47:00,
2013-07-10 06:52:00,75.3,73.8,29.93,SSE,159,2.0,2.0,95,0.00,CLR,,0.00,107.0,WeatherDisplay:10.37,2013-07-10 10:52:00,
2013-07-10 06:57:00,75.5,74.0,29.94,SSE,166,1.2,1.2,95,0.00,CLR,,0.00,123.0,WeatherDisplay:10.37,2013-07-10 10:57:00,
2013-07-10 07:02:00,75.6,74.1,29.94,SSE,166,1.2,1.2,95,0.00,FEW,,0.00,128.0,WeatherDisplay:10.37,2013-07-10 11:02:00,
2013-07-10 07:07:00,75.7,74.2,29.94,SSE,166,3.5,3.5,95,0.00,FEW,,0.00,149.0,WeatherDisplay:10.37,2013-07-10 11:07:00,
2013-07-10 07:12:00,75.9,74.4,29.95,SSW,202,3.5,3.5,95,0.00,FEW,,0.00,209.0,WeatherDisplay:10.37,2013-07-10 11:12:00,
2013-07-10 07:17:00,76.0,74.5,29.95,SSW,194,2.3,2.3,95,0.00,FEW,,0.00,135.0,WeatherDisplay:10.37,2013-07-10 11:17:00,
2013-07-10 07:22:00,76.1,74.6,29.95,SSW,207,4.0,4.0,95,0.00,FEW,,0.00,141.0,WeatherDisplay:10.37,2013-07-10 11:22:00,
2013-07-10 07:27:00,76.1,74.2,29.95,SSW,200,3.5,3.5,94,0.00,SCT,,0.00,137.0,WeatherDisplay:10.37,2013-07-10 11:27:00,
2013-07-10 07:32:00,76.1,74.2,29.95,South,186,4.6,4.6,94,0.00,SCT,,0.00,139.0,WeatherDisplay:10.37,2013-07-10 11:32:00,
2013-07-10 07:37:00,76.2,74.0,29.95,SSW,200,3.5,3.5,93,0.00,SCT,,0.00,171.0,WeatherDisplay:10.37,2013-07-10 11:37:00,
2013-07-10 07:42:00,76.3,74.1,29.95,SSW,197,2.3,2.3,93,0.00,SCT,,0.00,174.0,WeatherDisplay:10.37,2013-07-10 11:42:00,
2013-07-10 07:47:00,76.6,74.4,29.95,SSW,195,3.5,3.5,93,0.00,SCT,,0.00,214.0,WeatherDisplay:10.37,2013-07-10 11:47:00,
2013-07-10 07:52:00,76.8,74.3,29.95,SSW,200,4.0,4.0,92,0.00,SCT,,0.00,179.0,WeatherDisplay:10.37,2013-07-10 11:52:00,
2013-07-10 07:57:00,76.9,74.1,29.95,SSW,202,4.6,4.6,91,0.00,SCT,,0.00,160.0,WeatherDisplay:10.37,2013-07-10 11:57:00,
2013-07-10 08:02:00,76.9,74.1,29.95,SSW,202,3.5,3.5,91,0.00,OVC,,0.00,151.0,WeatherDisplay:10.37,2013-07-10 12:02:00,
2013-07-10 08:07:00,76.9,73.7,29.95,SSW,205,3.5,3.5,90,0.00,OVC,,0.00,144.0,WeatherDisplay:10.37,2013-07-10 12:07:00,
2013-07-10 08:12:00,76.8,73.6,29.95,SSW,207,4.0,4.0,90,0.00,OVC,,0.00,135.0,WeatherDisplay:10.37,2013-07-10 12:12:00,
2013-07-10 08:17:00,76.8,73.6,29.95,South,178,3.5,3.5,90,0.00,OVC,,0.00,137.0,WeatherDisplay:10.37,2013-07-10 12:17:00,
2013-07-10 08:22:00,76.9,73.7,29.95,South,190,3.5,3.5,90,0.00,OVC,,0.00,132.0,WeatherDisplay:10.37,2013-07-10 12:22:00,
2013-07-10 08:27:00,76.9,73.7,29.95,South,188,3.5,3.5,90,0.00,OVC,,0.00,116.0,WeatherDisplay:10.37,2013-07-10 12:27:00,
2013-07-10 08:32:00,76.9,73.7,29.96,South,191,3.5,3.5,90,0.00,OVC,,0.00,118.0,WeatherDisplay:10.37,2013-07-10 12:32:00,
2013-07-10 08:37:00,76.9,73.7,29.96,SW,231,3.5,3.5,90,0.00,OVC,,0.00,120.0,WeatherDisplay:10.37,2013-07-10 12:37:00,
2013-07-10 08:42:00,76.9,73.4,29.96,SW,219,2.3,2.3,89,0.00,OVC,,0.00,132.0,WeatherDisplay:10.37,2013-07-10 12:42:00,
2013-07-10 08:47:00,77.0,73.5,29.96,SW,233,2.3,2.3,89,0.00,OVC,,0.00,144.0,WeatherDisplay:10.37,2013-07-10 12:47:00,
2013-07-10 08:52:00,77.1,73.3,29.96,SW,234,2.3,2.3,88,0.00,OVC,,0.00,174.0,WeatherDisplay:10.37,2013-07-10 12:52:00,
2013-07-10 08:57:00,77.1,73.3,29.96,SSW,205,2.3,2.3,88,0.00,OVC,,0.00,158.0,WeatherDisplay:10.37,2013-07-10 12:57:00,
2013-07-10 09:02:00,77.2,73.4,29.96,SW,215,1.2,1.2,88,0.00,BKN,,0.00,158.0,WeatherDisplay:10.37,2013-07-10 13:02:00,
2013-07-10 09:07:00,77.4,73.6,29.96,WSW,248,3.5,3.5,88,0.00,BKN,,0.00,127.0,WeatherDisplay:10.37,2013-07-10 13:07:00,
2013-07-10 09:12:00,77.5,73.7,29.96,SW,214,2.0,2.0,88,0.00,BKN,,0.00,181.0,WeatherDisplay:10.37,2013-07-10 13:12:00,
2013-07-10 09:17:00,77.6,73.8,29.96,SSW,207,3.5,3.5,88,0.00,BKN,,0.00,253.0,WeatherDisplay:10.37,2013-07-10 13:17:00,
2013-07-10 09:22:00,78.4,74.5,29.96,SSW,212,3.5,3.5,88,0.00,BKN,,0.00,659.0,WeatherDisplay:10.37,2013-07-10 13:22:00,
2013-07-10 09:27:00,79.7,74.8,29.96,SW,229,5.8,5.8,85,0.00,BKN,,0.00,766.0,WeatherDisplay:10.37,2013-07-10 13:27:00,
2013-07-10 09:32:00,79.7,74.1,29.96,SW,225,5.8,5.8,83,0.00,BKN,,0.00,341.0,WeatherDisplay:10.37,2013-07-10 13:32:00,
2013-07-10 09:37:00,79.2,73.2,29.96,West,267,3.5,3.5,82,0.00,BKN,,0.00,232.0,WeatherDisplay:10.37,2013-07-10 13:37:00,
2013-07-10 09:42:00,79.0,73.4,29.96,SW,227,1.2,1.2,83,0.00,BKN,,0.00,176.0,WeatherDisplay:10.37,2013-07-10 13:42:00,
2013-07-10 09:47:00,78.7,73.5,29.96,SW,222,3.5,3.5,84,0.00,BKN,,0.00,169.0,WeatherDisplay:10.37,2013-07-10 13:47:00,
2013-07-10 09:52:00,78.4,73.5,29.96,SSW,199,2.3,2.3,85,0.00,BKN,,0.00,171.0,WeatherDisplay:10.37,2013-07-10 13:52:00,
2013-07-10 09:57:00,78.3,73.4,29.96,South,182,3.5,3.5,85,0.00,BKN,,0.00,155.0,WeatherDisplay:10.37,2013-07-10 13:57:00,
2013-07-10 10:02:00,78.2,73.7,29.96,SSW,200,2.3,2.3,86,0.00,BKN,,0.00,118.0,WeatherDisplay:10.37,2013-07-10 14:02:00,
2013-07-10 10:07:00,78.2,73.3,29.96,West,272,3.5,3.5,85,0.00,BKN,,0.00,163.0,WeatherDisplay:10.37,2013-07-10 14:07:00,
2013-07-10 10:12:00,78.3,72.7,29.96,WNW,299,4.0,4.0,83,0.00,BKN,,0.00,237.0,WeatherDisplay:10.37,2013-07-10 14:12:00,
2013-07-10 10:17:00,78.5,72.9,29.96,SSW,199,3.5,3.5,83,0.00,BKN,,0.00,276.0,WeatherDisplay:10.37,2013-07-10 14:17:00,
2013-07-10 10:22:00,79.0,73.4,29.96,SW,234,3.5,3.5,83,0.00,BKN,,0.00,445.0,WeatherDisplay:10.37,2013-07-10 14:22:00,
2013-07-10 10:27:00,79.8,73.4,29.96,WSW,238,3.5,3.5,81,0.00,BKN,,0.00,360.0,WeatherDisplay:10.37,2013-07-10 14:27:00,
2013-07-10 10:32:00,80.0,73.3,29.97,SW,219,3.5,3.5,80,0.00,BKN,,0.00,566.0,WeatherDisplay:10.37,2013-07-10 14:32:00,
2013-07-10 10:37:00,80.7,74.0,29.97,West,279,4.0,4.0,80,0.00,BKN,,0.00,466.0,WeatherDisplay:10.37,2013-07-10 14:37:00,
2013-07-10 10:42:00,80.7,73.2,29.96,SSW,200,3.5,3.5,78,0.00,BKN,,0.00,151.0,WeatherDisplay:10.37,2013-07-10 14:42:00,
2013-07-10 10:47:00,80.2,72.7,29.97,NW,309,6.9,6.9,78,0.00,BKN,,0.00,171.0,WeatherDisplay:10.37,2013-07-10 14:47:00,
2013-07-10 10:52:00,79.5,73.2,29.97,West,269,9.2,9.2,81,0.00,BKN,,0.00,144.0,WeatherDisplay:10.37,2013-07-10 14:52:00,
2013-07-10 10:57:00,79.4,72.7,29.97,West,267,4.6,4.6,80,0.00,BKN,,0.00,153.0,WeatherDisplay:10.37,2013-07-10 14:57:00,
2013-07-10 11:02:00,79.7,72.2,29.97,SW,229,3.5,3.5,78,0.00,-RA,,0.00,125.0,WeatherDisplay:10.37,2013-07-10 15:02:00,
2013-07-10 11:07:00,79.6,72.1,29.98,WNW,303,9.2,9.2,78,0.00,-RA,,0.00,104.0,WeatherDisplay:10.37,2013-07-10 15:07:00,
2013-07-10 11:12:00,79.2,72.5,29.98,WNW,301,8.0,8.0,80,0.00,-RA,,0.00,181.0,WeatherDisplay:10.37,2013-07-10 15:12:00,
2013-07-10 11:17:00,79.1,72.0,29.98,WSW,250,9.2,9.2,79,0.00,-RA,,0.00,243.0,WeatherDisplay:10.37,2013-07-10 15:17:00,
2013-07-10 11:22:00,79.0,72.3,29.98,WSW,241,8.1,8.1,80,0.00,-RA,,0.00,392.0,WeatherDisplay:10.37,2013-07-10 15:22:00,
2013-07-10 11:27:00,78.7,72.7,29.98,WNW,286,11.5,11.5,82,0.00,-RA,,0.00,132.0,WeatherDisplay:10.37,2013-07-10 15:27:00,
2013-07-10 11:32:00,76.4,72.2,29.98,NW,313,5.8,5.8,87,0.05,-RA,,0.06,162.0,WeatherDisplay:10.37,2013-07-10 15:32:00,
2013-07-10 11:37:00,75.3,72.5,29.98,West,280,3.0,3.0,91,0.07,-RA,,0.07,98.0,WeatherDisplay:10.37,2013-07-10 15:37:00,
2013-07-10 11:42:00,74.9,72.4,29.98,SW,222,3.5,3.5,92,0.08,-RA,,0.08,67.0,WeatherDisplay:10.37,2013-07-10 15:42:00,
2013-07-10 11:47:00,74.7,72.9,29.98,SSW,192,6.9,6.9,94,0.08,-RA,,0.08,178.0,WeatherDisplay:10.37,2013-07-10 15:47:00,
2013-07-10 11:52:00,74.5,72.7,29.98,SSW,196,6.9,6.9,94,0.08,-RA,,0.08,171.0,WeatherDisplay:10.37,2013-07-10 15:52:00,
2013-07-10 11:57:00,74.4,72.9,29.97,SW,217,5.8,5.8,95,0.08,-RA,,0.09,172.0,WeatherDisplay:10.37,2013-07-10 15:57:00,
2013-07-10 12:02:00,74.2,72.7,29.97,SSW,200,6.0,6.0,95,0.09,-RA,,0.09,181.0,WeatherDisplay:10.37,2013-07-10 16:02:00,
2013-07-10 12:07:00,74.0,72.8,29.97,SSE,153,3.5,3.5,96,0.10,-RA,,0.10,248.0,WeatherDisplay:10.37,2013-07-10 16:07:00,
2013-07-10 12:12:00,74.1,72.9,29.96,SW,223,5.0,5.0,96,0.10,-RA,,0.10,279.0,WeatherDisplay:10.37,2013-07-10 16:12:00,
2013-07-10 12:17:00,74.3,73.1,29.96,SSW,204,3.5,3.5,96,0.10,-RA,,0.10,295.0,WeatherDisplay:10.37,2013-07-10 16:17:00,
2013-07-10 12:22:00,74.5,73.3,29.95,SSE,154,4.6,4.6,96,0.10,-RA,,0.10,264.0,WeatherDisplay:10.37,2013-07-10 16:22:00,
2013-07-10 12:27:00,74.4,72.9,29.95,SSE,151,4.6,4.6,95,0.10,-RA,,0.10,178.0,WeatherDisplay:10.37,2013-07-10 16:27:00,
2013-07-10 12:32:00,74.3,72.8,29.95,SW,215,3.5,3.5,95,0.05,-RA,,0.10,206.0,WeatherDisplay:10.37,2013-07-10 16:32:00,
2013-07-10 12:37:00,74.3,72.8,29.95,South,171,2.3,2.3,95,0.03,-RA,,0.10,283.0,WeatherDisplay:10.37,2013-07-10 16:37:00,
2013-07-10 12:42:00,74.7,73.5,29.94,SSW,196,3.5,3.5,96,0.02,-RA,,0.10,376.0,WeatherDisplay:10.37,2013-07-10 16:42:00,
2013-07-10 12:47:00,75.7,75.7,29.93,SSE,149,3.5,3.5,100,0.02,-RA,,0.10,494.0,WeatherDisplay:10.37,2013-07-10 16:47:00,
2013-07-10 12:52:00,76.5,74.6,29.93,South,185,3.5,3.5,94,0.02,-RA,,0.10,545.0,WeatherDisplay:10.37,2013-07-10 16:52:00,
2013-07-10 12:57:00,76.9,74.4,29.93,South,173,3.5,3.5,92,0.02,-RA,,0.10,494.0,WeatherDisplay:10.37,2013-07-10 16:57:00,
2013-07-10 13:02:00,77.1,74.9,29.93,SSE,154,4.6,4.6,93,0.01,RA,,0.10,513.0,WeatherDisplay:10.37,2013-07-10 17:02:00,
2013-07-10 13:07:00,77.6,74.8,29.93,SSW,212,4.6,4.6,91,0.00,FEW,,0.10,452.0,WeatherDisplay:10.37,2013-07-10 17:07:00,
2013-07-10 13:12:00,77.7,74.5,29.93,South,180,4.6,4.6,90,0.00,FEW,,0.10,540.0,WeatherDisplay:10.37,2013-07-10 17:12:00,
2013-07-10 13:17:00,78.7,75.5,29.93,SW,215,5.8,5.8,90,0.00,FEW,,0.10,962.0,WeatherDisplay:10.37,2013-07-10 17:17:00,
2013-07-10 13:23:00,80.4,76.9,29.92,SSW,201,5.8,5.8,89,0.00,FEW,,0.10,1014.0,WeatherDisplay:10.37,2013-07-10 17:23:00,
2013-07-10 13:28:00,79.8,74.2,29.92,SW,221,8.1,8.1,83,0.00,FEW,,0.10,285.0,WeatherDisplay:10.37,2013-07-10 17:28:00,
2013-07-10 13:33:00,80.4,75.8,29.92,South,177,8.0,8.0,86,0.00,FEW,,0.10,1153.0,WeatherDisplay:10.37,2013-07-10 17:33:00,
2013-07-10 13:38:00,80.7,76.1,29.92,South,184,5.0,5.0,86,0.00,FEW,,0.10,1153.0,WeatherDisplay:10.37,2013-07-10 17:38:00,
2013-07-10 13:43:00,81.1,75.4,29.92,SSW,205,6.9,6.9,83,0.00,FEW,,0.10,497.0,WeatherDisplay:10.37,2013-07-10 17:43:00,
2013-07-10 13:48:00,81.1,76.2,29.92,SSW,192,5.8,5.8,85,0.00,FEW,,0.10,396.0,WeatherDisplay:10.37,2013-07-10 17:48:00,
2013-07-10 13:53:00,81.8,76.5,29.91,SSW,200,7.0,7.0,84,0.00,FEW,,0.10,935.0,WeatherDisplay:10.37,2013-07-10 17:53:00,
2013-07-10 13:58:00,81.9,75.9,29.92,SW,227,8.1,8.1,82,0.00,SCT,,0.10,656.0,WeatherDisplay:10.37,2013-07-10 17:58:00,
2013-07-10 14:03:00,82.3,75.5,29.92,SSW,201,4.6,4.6,80,0.00,SCT,,0.10,958.0,WeatherDisplay:10.37,2013-07-10 18:03:00,
2013-07-10 14:08:00,82.7,75.5,29.91,SW,228,6.9,6.9,79,0.00,SCT,,0.10,958.0,WeatherDisplay:10.37,2013-07-10 18:08:00,
2013-07-10 14:13:00,82.9,75.3,29.91,SSW,205,7.0,7.0,78,0.00,SCT,,0.10,557.0,WeatherDisplay:10.37,2013-07-10 18:13:00,
2013-07-10 14:18:00,82.4,74.8,29.90,SW,235,11.5,11.5,78,0.00,SCT,,0.10,237.0,WeatherDisplay:10.37,2013-07-10 18:18:00,
2013-07-10 14:23:00,83.2,75.2,29.91,SSW,204,6.9,6.9,77,0.00,SCT,,0.10,1116.0,WeatherDisplay:10.37,2013-07-10 18:23:00,
2013-07-10 14:28:00,83.1,75.5,29.90,SSW,209,6.9,6.9,78,0.00,SCT,,0.10,686.0,WeatherDisplay:10.37,2013-07-10 18:28:00,
2013-07-10 14:33:00,82.7,74.8,29.90,South,174,4.0,4.0,77,0.00,SCT,,0.10,236.0,WeatherDisplay:10.37,2013-07-10 18:33:00,
2013-07-10 14:38:00,82.4,75.6,29.90,South,191,6.9,6.9,80,0.00,SCT,,0.10,608.0,WeatherDisplay:10.37,2013-07-10 18:38:00,
2013-07-10 14:43:00,83.2,76.4,29.90,SSW,194,7.0,7.0,80,0.00,SCT,,0.10,1013.0,WeatherDisplay:10.37,2013-07-10 18:43:00,
2013-07-10 14:48:00,83.5,75.1,29.90,SW,229,6.0,6.0,76,0.00,SCT,,0.10,823.0,WeatherDisplay:10.37,2013-07-10 18:48:00,
2013-07-10 14:53:00,83.0,75.4,29.90,South,186,4.6,4.6,78,0.00,SCT,,0.10,464.0,WeatherDisplay:10.37,2013-07-10 18:53:00,
2013-07-10 14:58:00,83.5,75.9,29.89,WSW,239,3.5,3.5,78,0.00,FEW,,0.10,504.0,WeatherDisplay:10.37,2013-07-10 18:58:00,
2013-07-10 15:03:00,83.6,77.1,29.89,SW,224,7.0,7.0,81,0.00,FEW,,0.10,960.0,WeatherDisplay:10.37,2013-07-10 19:03:00,
2013-07-10 15:08:00,84.3,77.8,29.89,South,173,6.0,6.0,81,0.00,FEW,,0.10,791.0,WeatherDisplay:10.37,2013-07-10 19:08:00,
2013-07-10 15:14:00,84.3,75.9,29.89,WSW,248,8.1,8.1,76,0.00,FEW,,0.10,571.0,WeatherDisplay:10.37,2013-07-10 19:14:00,
2013-07-10 15:19:00,84.3,75.9,29.88,South,188,6.9,6.9,76,0.00,FEW,,0.10,571.0,WeatherDisplay:10.37,2013-07-10 19:19:00,
2013-07-10 15:24:00,85.0,77.4,29.88,SSW,197,5.0,5.0,78,0.00,FEW,,0.10,793.0,WeatherDisplay:10.37,2013-07-10 19:24:00,
2013-07-10 15:29:00,85.2,76.4,29.89,SW,215,5.8,5.8,75,0.00,FEW,,0.10,780.0,WeatherDisplay:10.37,2013-07-10 19:29:00,
2013-07-10 15:34:00,85.3,76.1,29.89,West,281,4.6,5.5,74,0.00,FEW,,0.10,805.0,WeatherDisplay:10.37,2013-07-10 19:34:00,
2013-07-10 15:39:00,85.4,76.2,29.88,SW,219,8.1,8.1,74,0.00,FEW,,0.10,773.0,WeatherDisplay:10.37,2013-07-10 19:39:00,
2013-07-10 15:44:00,85.5,76.3,29.87,South,181,5.0,5.0,74,0.00,FEW,,0.10,810.0,WeatherDisplay:10.37,2013-07-10 19:44:00,
2013-07-10 15:49:00,86.0,77.1,29.87,SW,236,3.5,3.5,75,0.00,FEW,,0.10,782.0,WeatherDisplay:10.37,2013-07-10 19:49:00,
2013-07-10 15:54:00,85.4,76.6,29.87,SSW,203,5.8,5.8,75,0.00,FEW,,0.10,172.0,WeatherDisplay:10.37,2013-07-10 19:54:00,
2013-07-10 15:59:00,85.2,77.2,29.87,SSW,194,5.8,5.8,77,0.00,SCT,,0.10,239.0,WeatherDisplay:10.37,2013-07-10 19:59:00,
2013-07-10 16:04:00,85.3,77.3,29.87,SSW,198,5.8,5.8,77,0.00,SCT,,0.10,745.0,WeatherDisplay:10.37,2013-07-10 20:04:00,
2013-07-10 16:09:00,85.6,76.8,29.87,SW,229,3.5,3.5,75,0.00,SCT,,0.10,793.0,WeatherDisplay:10.37,2013-07-10 20:09:00,
2013-07-10 16:14:00,86.4,76.7,29.87,SW,217,3.5,3.5,73,0.00,SCT,,0.10,687.0,WeatherDisplay:10.37,2013-07-10 20:14:00,
2013-07-10 16:19:00,86.5,76.4,29.86,SSW,207,3.5,3.5,72,0.00,SCT,,0.10,167.0,WeatherDisplay:10.37,2013-07-10 20:19:00,
2013-07-10 16:24:00,86.2,76.5,29.86,SSW,202,5.8,5.8,73,0.00,SCT,,0.10,640.0,WeatherDisplay:10.37,2013-07-10 20:24:00,
2013-07-10 16:29:00,86.8,78.3,29.86,SSW,200,6.0,6.0,76,0.00,SCT,,0.10,585.0,WeatherDisplay:10.37,2013-07-10 20:29:00,
2013-07-10 16:34:00,85.7,76.5,29.86,SSE,155,3.5,3.5,74,0.00,SCT,,0.10,267.0,WeatherDisplay:10.37,2013-07-10 20:34:00,
2013-07-10 16:39:00,85.6,76.8,29.85,SSW,209,4.6,4.6,75,0.00,SCT,,0.10,313.0,WeatherDisplay:10.37,2013-07-10 20:39:00,
2013-07-10 16:44:00,86.3,76.6,29.86,SSW,192,3.5,3.5,73,0.00,SCT,,0.10,601.0,WeatherDisplay:10.37,2013-07-10 20:44:00,
2013-07-10 16:49:00,86.3,76.2,29.85,SSW,200,6.9,6.9,72,0.00,SCT,,0.10,526.0,WeatherDisplay:10.37,2013-07-10 20:49:00,
2013-07-10 16:54:00,86.0,74.6,29.85,WSW,257,4.0,4.0,69,0.00,SCT,,0.10,606.0,WeatherDisplay:10.37,2013-07-10 20:54:00,
2013-07-10 16:59:00,86.2,75.3,29.85,SW,227,3.5,3.5,70,0.00,FEW,,0.10,441.0,WeatherDisplay:10.37,2013-07-10 20:59:00,
2013-07-10 17:04:00,85.9,74.5,29.85,WSW,242,4.6,4.6,69,0.00,FEW,,0.10,450.0,WeatherDisplay:10.37,2013-07-10 21:04:00,
2013-07-10 17:09:00,85.7,75.6,29.85,SSW,208,6.0,6.0,72,0.00,FEW,,0.10,169.0,WeatherDisplay:10.37,2013-07-10 21:09:00,
2013-07-10 17:14:00,85.4,76.2,29.85,SW,216,3.5,3.5,74,0.00,FEW,,0.10,148.0,WeatherDisplay:10.37,2013-07-10 21:14:00,
2013-07-10 17:19:00,85.2,76.8,29.84,SSW,200,3.5,3.5,76,0.00,FEW,,0.10,330.0,WeatherDisplay:10.37,2013-07-10 21:19:00,
2013-07-10 17:24:00,85.4,75.8,29.84,SSW,210,6.9,6.9,73,0.00,FEW,,0.10,116.0,WeatherDisplay:10.37,2013-07-10 21:24:00,
2013-07-10 17:29:00,85.7,76.9,29.84,SSW,211,4.6,4.6,75,0.00,FEW,,0.10,475.0,WeatherDisplay:10.37,2013-07-10 21:29:00,
2013-07-10 17:34:00,86.4,77.1,29.84,South,176,5.8,5.8,74,0.00,FEW,,0.10,531.0,WeatherDisplay:10.37,2013-07-10 21:34:00,
2013-07-10 17:39:00,86.4,76.7,29.84,SSW,198,5.8,5.8,73,0.00,FEW,,0.10,403.0,WeatherDisplay:10.37,2013-07-10 21:39:00,
2013-07-10 17:44:00,86.2,76.5,29.85,SE,141,5.8,5.8,73,0.00,FEW,,0.10,156.0,WeatherDisplay:10.37,2013-07-10 21:44:00,
2013-07-10 17:49:00,85.8,75.7,29.85,SSE,160,4.6,4.6,72,0.00,FEW,,0.10,408.0,WeatherDisplay:10.37,2013-07-10 21:49:00,
2013-07-10 17:54:00,85.8,76.5,29.85,SSE,150,6.0,6.0,74,0.00,FEW,,0.10,214.0,WeatherDisplay:10.37,2013-07-10 21:54:00,
2013-07-10 17:59:00,85.3,76.5,29.85,SSW,209,6.0,6.0,75,0.00,FEW,,0.10,318.0,WeatherDisplay:10.37,2013-07-10 21:59:00,
2013-07-10 18:04:00,85.2,77.2,29.85,ESE,121,5.8,5.8,77,0.00,FEW,,0.10,234.0,WeatherDisplay:10.37,2013-07-10 22:04:00,
2013-07-10 18:09:00,84.8,77.2,29.85,SSE,148,3.5,3.5,78,0.00,FEW,,0.10,227.0,WeatherDisplay:10.37,2013-07-10 22:09:00,
2013-07-10 18:14:00,84.5,76.9,29.85,SSE,167,6.9,6.9,78,0.00,FEW,,0.10,135.0,WeatherDisplay:10.37,2013-07-10 22:14:00,
2013-07-10 18:19:00,84.3,77.1,29.85,SSE,167,5.0,5.0,79,0.00,FEW,,0.10,153.0,WeatherDisplay:10.37,2013-07-10 22:19:00,
2013-07-10 18:24:00,84.1,76.9,29.85,SE,135,3.5,3.5,79,0.00,FEW,,0.10,155.0,WeatherDisplay:10.37,2013-07-10 22:24:00,
2013-07-10 18:29:00,83.9,76.7,29.86,SSE,148,4.6,4.6,79,0.00,FEW,,0.10,160.0,WeatherDisplay:10.37,2013-07-10 22:29:00,
2013-07-10 18:34:00,84.0,76.8,29.86,South,182,2.3,2.3,79,0.00,FEW,,0.10,304.0,WeatherDisplay:10.37,2013-07-10 22:34:00,
2013-07-10 18:39:00,84.3,76.3,29.85,South,176,5.8,5.8,77,0.00,FEW,,0.10,192.0,WeatherDisplay:10.37,2013-07-10 22:39:00,
2013-07-10 18:44:00,84.5,76.1,29.86,South,182,6.9,6.9,76,0.00,FEW,,0.10,172.0,WeatherDisplay:10.37,2013-07-10 22:44:00,
2013-07-10 18:49:00,84.2,75.0,29.87,SSW,202,6.9,6.9,74,0.00,FEW,,0.10,98.0,WeatherDisplay:10.37,2013-07-10 22:49:00,
2013-07-10 18:54:00,83.8,75.0,29.87,SW,223,6.0,6.0,75,0.00,FEW,,0.10,42.0,WeatherDisplay:10.37,2013-07-10 22:54:00,
2013-07-10 18:59:00,83.4,75.0,29.87,SW,215,5.0,5.0,76,0.00,CLR,,0.10,77.0,WeatherDisplay:10.37,2013-07-10 22:59:00,
2013-07-10 19:04:00,83.1,75.1,29.87,South,187,8.0,8.0,77,0.00,CLR,,0.10,76.0,WeatherDisplay:10.37,2013-07-10 23:04:00,
2013-07-10 19:09:00,82.9,75.3,29.87,South,190,5.8,5.8,78,0.00,CLR,,0.10,69.0,WeatherDisplay:10.37,2013-07-10 23:09:00,
2013-07-10 19:14:00,82.7,75.1,29.87,SSW,204,3.5,3.5,78,0.00,CLR,,0.10,62.0,WeatherDisplay:10.37,2013-07-10 23:14:00,
2013-07-10 19:19:00,82.4,75.2,29.86,SSE,148,4.0,4.0,79,0.00,CLR,,0.10,65.0,WeatherDisplay:10.37,2013-07-10 23:19:00,
2013-07-10 19:24:00,82.2,75.4,29.86,South,179,4.6,4.6,80,0.00,CLR,,0.10,60.0,WeatherDisplay:10.37,2013-07-10 23:24:00,
2013-07-10 19:29:00,82.0,75.2,29.87,SW,226,3.5,3.5,80,0.00,CLR,,0.10,53.0,WeatherDisplay:10.37,2013-07-10 23:29:00,
2013-07-10 19:34:00,81.8,75.4,29.86,South,183,4.6,4.6,81,0.00,CLR,,0.10,49.0,WeatherDisplay:10.37,2013-07-10 23:34:00,
2013-07-10 19:39:00,81.6,75.6,29.87,South,186,3.5,3.5,82,0.00,CLR,,0.10,47.0,WeatherDisplay:10.37,2013-07-10 23:39:00,
2013-07-10 19:44:00,81.6,75.6,29.87,SSW,192,3.5,3.5,82,0.00,CLR,,0.10,47.0,WeatherDisplay:10.37,2013-07-10 23:44:00,
2013-07-10 19:49:00,81.4,75.7,29.87,SSW,192,3.5,3.5,83,0.00,CLR,,0.10,44.0,WeatherDisplay:10.37,2013-07-10 23:49:00,
2013-07-10 19:54:00,81.2,75.9,29.87,SSW,192,2.3,2.3,84,0.00,CLR,,0.10,39.0,WeatherDisplay:10.37,2013-07-10 23:54:00,
2013-07-10 19:59:00,81.1,75.8,29.87,SSW,192,1.2,1.2,84,0.00,CLR,,0.10,33.0,WeatherDisplay:10.37,2013-07-10 23:59:00,
2013-07-10 20:04:00,81.0,75.7,29.87,SSW,194,3.5,3.5,84,0.00,CLR,,0.10,25.0,WeatherDisplay:10.37,2013-07-11 00:04:00,
2013-07-10 20:09:00,80.8,75.5,29.86,SSW,213,3.5,3.5,84,0.00,CLR,,0.10,19.0,WeatherDisplay:10.37,2013-07-11 00:09:00,
2013-07-10 20:14:00,80.6,75.0,29.87,South,189,3.5,3.5,83,0.00,CLR,,0.10,12.0,WeatherDisplay:10.37,2013-07-11 00:14:00,
2013-07-10 20:19:00,80.5,74.9,29.86,SW,217,3.0,3.0,83,0.00,CLR,,0.10,9.0,WeatherDisplay:10.37,2013-07-11 00:19:00,
2013-07-10 20:24:00,80.2,74.2,29.86,SSW,211,4.0,4.0,82,0.00,CLR,,0.10,5.0,WeatherDisplay:10.37,2013-07-11 00:24:00,
2013-07-10 20:29:00,80.0,74.0,29.86,SSW,199,3.5,3.5,82,0.00,CLR,,0.10,0.0,WeatherDisplay:10.37,2013-07-11 00:29:00,
2013-07-10 20:34:00,79.7,73.3,29.86,SSW,197,2.3,2.3,81,0.00,CLR,,0.10,0.0,WeatherDisplay:10.37,2013-07-11 00:34:00,
2013-07-10 20:39:00,79.5,73.5,29.86,SSW,209,3.5,3.5,82,0.00,CLR,,0.10,0.0,WeatherDisplay:10.37,2013-07-11 00:39:00,
2013-07-10 20:44:00,79.2,72.9,29.86,SSW,209,3.5,3.5,81,0.00,CLR,,0.10,0.0,WeatherDisplay:10.37,2013-07-11 00:44:00,
2013-07-10 20:49:00,79.0,72.7,29.86,SSW,207,2.3,2.3,81,0.00,CLR,,0.10,0.0,WeatherDisplay:10.37,2013-07-11 00:49:00,
2013-07-10 20:54:00,78.7,72.7,29.86,SSW,207,3.5,3.5,82,0.00,CLR,,0.10,0.0,WeatherDisplay:10.37,2013-07-11 00:54:00,
2013-07-10 21:00:00,78.4,72.4,29.85,SSW,206,1.2,1.2,82,0.00,CLR,,0.10,0.0,WeatherDisplay:10.37,2013-07-11 01:00:00,
2013-07-10 21:05:00,78.0,72.8,29.85,SSW,206,1.2,0.0,84,0.00,CLR,,0.10,0.0,WeatherDisplay:10.37,2013-07-11 01:05:00,
2013-07-10 21:10:00,77.6,72.4,29.85,South,174,1.2,1.2,84,0.00,CLR,,0.10,0.0,WeatherDisplay:10.37,2013-07-11 01:10:00,
2013-07-10 21:15:00,77.6,72.0,29.85,South,175,3.5,3.5,83,0.00,CLR,,0.10,0.0,WeatherDisplay:10.37,2013-07-11 01:15:00,
2013-07-10 21:20:00,77.7,71.8,29.85,South,175,2.3,2.3,82,0.00,CLR,,0.10,0.0,WeatherDisplay:10.37,2013-07-11 01:20:00,
2013-07-10 21:25:00,78.0,71.7,29.86,South,171,1.2,1.2,81,0.00,CLR,,0.10,0.0,WeatherDisplay:10.37,2013-07-11 01:25:00,
2013-07-10 21:30:00,78.2,71.5,29.86,South,171,2.3,2.3,80,0.00,CLR,,0.10,0.0,WeatherDisplay:10.37,2013-07-11 01:30:00,
2013-07-10 21:35:00,78.2,71.5,29.86,South,179,1.2,1.2,80,0.00,CLR,,0.10,0.0,WeatherDisplay:10.37,2013-07-11 01:35:00,
2013-07-10 21:40:00,78.1,71.8,29.85,SSE,165,3.5,3.5,81,0.00,CLR,,0.10,0.0,WeatherDisplay:10.37,2013-07-11 01:40:00,
2013-07-10 21:45:00,78.1,71.8,29.85,SSE,167,3.5,3.5,81,0.00,CLR,,0.10,0.0,WeatherDisplay:10.37,2013-07-11 01:45:00,
2013-07-10 21:50:00,78.2,71.9,29.85,SSE,167,3.5,3.5,81,0.00,CLR,,0.10,0.0,WeatherDisplay:10.37,2013-07-11 01:50:00,
2013-07-10 21:55:00,78.2,71.9,29.85,SE,131,2.3,2.3,81,0.00,CLR,,0.10,0.0,WeatherDisplay:10.37,2013-07-11 01:55:00,
2013-07-10 22:00:00,78.1,72.2,29.85,SE,131,2.3,2.3,82,0.00,CLR,,0.10,0.0,WeatherDisplay:10.37,2013-07-11 02:00:00,
2013-07-10 22:05:00,78.2,72.6,29.84,SE,139,1.2,1.2,83,0.00,CLR,,0.10,0.0,WeatherDisplay:10.37,2013-07-11 02:05:00,
2013-07-10 22:10:00,78.1,72.9,29.84,SE,139,1.2,1.2,84,0.00,CLR,,0.10,0.0,WeatherDisplay:10.37,2013-07-11 02:10:00,
2013-07-10 22:15:00,78.1,72.9,29.84,South,171,3.5,3.5,84,0.00,CLR,,0.10,0.0,WeatherDisplay:10.37,2013-07-11 02:15:00,
2013-07-10 22:20:00,78.0,72.8,29.84,South,173,2.3,2.3,84,0.00,CLR,,0.10,0.0,WeatherDisplay:10.37,2013-07-11 02:20:00,
2013-07-10 22:25:00,78.0,73.1,29.84,SSE,153,2.3,2.3,85,0.00,CLR,,0.10,0.0,WeatherDisplay:10.37,2013-07-11 02:25:00,
2013-07-10 22:30:00,78.0,73.1,29.84,SSE,161,3.5,3.5,85,0.00,CLR,,0.10,0.0,WeatherDisplay:10.37,2013-07-11 02:30:00,
2013-07-10 22:35:00,78.0,73.5,29.84,SSE,161,1.2,1.2,86,0.00,CLR,,0.10,0.0,WeatherDisplay:10.37,2013-07-11 02:35:00,
2013-07-10 22:40:00,78.0,73.5,29.84,ESE,120,2.3,2.3,86,0.00,CLR,,0.10,0.0,WeatherDisplay:10.37,2013-07-11 02:40:00,
2013-07-10 22:45:00,77.9,73.4,29.84,South,173,1.2,1.2,86,0.00,CLR,,0.10,0.0,WeatherDisplay:10.37,2013-07-11 02:45:00,
2013-07-10 22:50:00,77.8,73.6,29.83,South,181,1.2,1.2,87,0.00,CLR,,0.10,0.0,WeatherDisplay:10.37,2013-07-11 02:50:00,
2013-07-10 22:55:00,77.7,73.5,29.83,South,181,1.2,0.0,87,0.00,CLR,,0.10,0.0,WeatherDisplay:10.37,2013-07-11 02:55:00,
2013-07-10 23:00:00,77.6,73.8,29.83,South,181,1.2,0.0,88,0.00,CLR,,0.10,0.0,WeatherDisplay:10.37,2013-07-11 03:00:00,
2013-07-10 23:05:00,77.4,73.9,29.83,South,181,0.0,0.0,89,0.00,CLR,,0.10,0.0,WeatherDisplay:10.37,2013-07-11 03:05:00,
2013-07-10 23:10:00,77.3,73.8,29.82,SSE,162,1.2,1.2,89,0.00,CLR,,0.10,0.0,WeatherDisplay:10.37,2013-07-11 03:10:00,
2013-07-10 23:15:00,77.4,74.6,29.82,South,172,1.2,0.0,91,0.00,CLR,,0.10,0.0,WeatherDisplay:10.37,2013-07-11 03:15:00,
2013-07-10 23:20:00,77.5,74.7,29.82,South,173,1.2,1.2,91,0.00,CLR,,0.10,0.0,WeatherDisplay:10.37,2013-07-11 03:20:00,
2013-07-10 23:25:00,77.6,74.8,29.82,South,173,1.2,1.2,91,0.00,CLR,,0.10,0.0,WeatherDisplay:10.37,2013-07-11 03:25:00,
2013-07-10 23:30:00,77.6,75.1,29.82,South,173,2.3,2.3,92,0.00,CLR,,0.10,0.0,WeatherDisplay:10.37,2013-07-11 03:30:00,
2013-07-10 23:35:00,77.6,75.1,29.82,South,173,2.3,2.3,92,0.00,CLR,,0.10,0.0,WeatherDisplay:10.37,2013-07-11 03:35:00,
2013-07-10 23:40:00,77.5,75.3,29.82,South,173,1.0,0.0,93,0.00,CLR,,0.10,0.0,WeatherDisplay:10.37,2013-07-11 03:40:00,
2013-07-10 23:45:00,77.5,75.3,29.82,South,177,1.2,1.2,93,0.00,CLR,,0.10,0.0,WeatherDisplay:10.37,2013-07-11 03:45:00,
2013-07-10 23:50:00,77.3,74.8,29.82,WNW,296,3.5,3.5,92,0.00,CLR,,0.10,0.0,WeatherDisplay:10.37,2013-07-11 03:50:00,
2013-07-10 23:55:00,77.0,74.5,29.82,WNW,296,3.5,3.5,92,0.00,CLR,,0.10,0.0,WeatherDisplay:10.37,2013-07-11 03:55:00,